KC7MRQ Weather Reports


Display with metric or nautical units.
time (UTC)temp
F
wind
direction
speed
MPH
gust
MPH
rain 1hr
in
rain 24hr
in
rain mn
in
humidity
%
barometer
mb
20260905150028 52 8 8.0 12.0 0.00 0.00 0.00 76 1013.5
20260905144534 51 24 4.0 7.0 0.00 0.00 0.00 78 1013.4
20260905143029 51 9 3.0 8.0 0.00 0.00 0.00 80 1013.4
20260905141526 49 74 6.0 9.0 0.00 0.00 0.00 82 1013.2
20260905140025 49 345 1.0 5.0 0.00 0.00 0.00 83 1013.4
20260905134523 48 345 2.0 6.0 0.00 0.00 0.00 84 1013.2
20260905133020 47 244 4.0 7.0 0.00 0.00 0.00 84 1013.0
20260905131527 48 345 3.0 5.0 0.00 0.00 0.00 82 1012.8
20260905130016 48 345 3.0 8.0 0.00 0.00 0.00 82 1012.4
20260905124515 49 345 3.0 9.0 0.00 0.00 0.00 80 1012.5
20260905123013 49 279 6.0 11.0 0.00 0.00 0.00 79 1012.2
20260905121512 49 345 9.0 16.0 0.00 0.00 0.00 79 1012.2
20260905120009 49 269 8.0 12.0 0.00 0.00 0.00 82 1011.7
20260905114506 49 266 7.0 13.0 0.00 0.00 0.00 82 1011.9
20260905113004 49 72 5.0 11.0 0.00 0.00 0.00 81 1011.9
20260905111503 49 71 5.0 10.0 0.00 0.00 0.00 82 1011.7
20260905104501 49 345 4.0 6.0 0.00 0.00 0.00 86 1011.3
20260905103101 49 345 2.0 4.0 0.00 0.00 0.00 85 1010.7
20260905101558 49 345 2.0 8.0 0.00 0.00 0.00 82 1010.4
20260905100107 50 77 6.0 13.0 0.00 0.00 0.00 80 1010.6
20260905094555 50 87 10.0 14.0 0.00 0.00 0.00 81 1010.9
20260905093058 51 345 4.0 6.0 0.00 0.00 0.00 79 1011.3
20260905091600 51 345 3.0 11.0 0.00 0.00 0.00 77 1011.5
20260905090050 52 345 2.0 12.0 0.00 0.00 0.00 75 1010.7
20260905084553 52 345 6.0 10.0 0.00 0.00 0.00 76 1010.4
20260905083048 52 345 3.0 6.0 0.00 0.00 0.00 76 1011.5
20260905081544 52 345 4.0 10.0 0.00 0.00 0.00 77 1010.7
20260905080052 51 345 5.0 9.0 0.00 0.00 0.00 77 1010.5
20260905074543 51 345 3.0 6.0 0.00 0.00 0.00 77 1010.5
20260905073040 51 345 3.0 4.0 0.00 0.00 0.00 76 1010.6
20260905071538 52 345 2.0 6.0 0.00 0.00 0.00 74 1010.4
20260905070038 52 345 6.0 11.0 0.00 0.00 0.00 75 1010.0
20260905064535 52 345 10.0 17.0 0.00 0.00 0.00 75 1009.5
20260905063031 53 345 12.0 17.0 0.00 0.00 0.00 76 1009.5
20260905061528 52 345 10.0 17.0 0.00 0.00 0.00 77 1009.3
20260905060033 53 231 5.0 15.0 0.00 0.00 0.00 75 1009.3
20260905054523 54 231 11.0 19.0 0.00 0.00 0.00 73 1009.0
20260905053029 55 73 9.0 14.0 0.00 0.00 0.00 69 1009.1
20260905051523 56 345 6.0 11.0 0.00 0.00 0.00 66 1008.9
20260905050021 54 205 5.0 12.0 0.00 0.00 0.00 72 1009.3
20260905044523 55 314 11.0 19.0 0.00 0.00 0.00 70 1009.4
20260905043017 56 293 13.0 19.0 0.00 0.00 0.00 66 1009.7
20260905041514 57 296 9.0 13.0 0.00 0.00 0.00 63 1009.1
20260905040018 56 289 7.0 13.0 0.00 0.00 0.00 65 1008.5
20260905034514 58 310 6.0 11.0 0.00 0.00 0.00 62 1008.4
20260905033011 58 360 7.0 9.0 0.00 0.00 0.00 61 1008.5
20260905031513 58 290 7.0 10.0 0.00 0.00 0.00 60 1008.1
20260905030012 58 187 8.0 16.0 0.00 0.00 0.00 61 1008.3
20260905024524 59 277 16.0 21.0 0.00 0.00 0.00 61 1008.6
20260905023006 59 167 11.0 17.0 0.00 0.00 0.00 61 1007.8
20260905021506 59 167 13.0 18.0 0.00 0.00 0.00 59 1007.3
20260905020003 60 167 13.0 17.0 0.00 0.00 0.00 58 1007.2
20260905014501 61 170 9.0 13.0 0.00 0.00 0.00 56 1007.0
20260905013058 62 277 6.0 9.0 0.00 0.00 0.00 51 1006.7
20260905011558 64 305 1.0 7.0 0.00 0.00 0.00 49 1006.5
20260905004610 64 355 6.0 10.0 0.00 0.00 0.00 50 1006.0
20260905003052 64 354 6.0 15.0 0.00 0.00 0.00 49 1005.9
20260905001551 64 9 9.0 14.0 0.00 0.00 0.00 49 1005.8
20260905000050 64 13 11.0 15.0 0.00 0.00 0.00 50 1005.6
20260904234550 64 358 11.0 14.0 0.00 0.00 0.00 50 1005.5
20260904233053 67 358 9.0 12.0 0.00 0.00 0.00 44 1005.7
20260904231545 70 14 2.0 10.0 0.00 0.00 0.00 38 1005.5
20260904230045 71 200 5.0 9.0 0.00 0.00 0.00 33 1005.2
20260904224545 70 227 8.0 13.0 0.00 0.00 0.00 34 1005.2
20260904223042 69 215 7.0 15.0 0.00 0.00 0.00 35 1005.1
20260904221541 69 252 8.0 15.0 0.00 0.00 0.00 36 1005.0
20260904220040 70 198 7.0 15.0 0.00 0.00 0.00 35 1004.9
20260904214539 70 239 10.0 15.0 0.00 0.00 0.00 34 1004.9
20260904213038 70 237 6.0 17.0 0.00 0.00 0.00 35 1004.9
20260904211537 69 198 6.0 19.0 0.00 0.00 0.00 37 1004.9
20260904210048 70 263 11.0 18.0 0.00 0.00 0.00 36 1004.9
20260904204537 70 283 5.0 13.0 0.00 0.00 0.00 36 1004.9
20260904203036 70 94 6.0 13.0 0.00 0.00 0.00 36 1005.0
20260904201538 69 25 6.0 13.0 0.00 0.00 0.00 37 1005.0
20260904200033 69 34 2.0 8.0 0.00 0.00 0.00 37 1005.1
20260904194532 69 194 4.0 9.0 0.00 0.00 0.00 35 1005.1
20260904193031 69 204 6.0 12.0 0.00 0.00 0.00 36 1005.1
20260904191531 68 151 4.0 16.0 0.00 0.00 0.00 37 1005.1
20260904190029 68 118 7.0 15.0 0.00 0.00 0.00 36 1005.0
20260904184527 68 173 2.0 12.0 0.00 0.00 0.00 38 1005.1
20260904183028 66 55 7.0 14.0 0.00 0.00 0.00 41 1005.0
20260904181524 67 127 8.0 24.0 0.00 0.00 0.00 39 1004.9
20260904180023 66 280 11.0 17.0 0.00 0.00 0.00 42 1004.9
20260904174521 64 264 6.0 14.0 0.00 0.00 0.00 45 1005.2
20260904173016 64 246 5.0 12.0 0.00 0.00 0.00 46 1005.2
20260904171513 62 340 4.0 18.0 0.00 0.00 0.00 47 1005.2
20260904170016 63 189 8.0 14.0 0.00 0.00 0.00 48 1005.0
20260904164511 62 185 9.0 14.0 0.00 0.00 0.00 49 1005.0
20260904163008 61 183 8.0 16.0 0.00 0.00 0.00 51 1005.1
20260904161505 60 172 11.0 20.0 0.00 0.00 0.00 53 1005.3
20260904160008 59 174 12.0 22.0 0.00 0.00 0.00 54 1005.2
20260904154506 57 178 18.0 24.0 0.00 0.00 0.00 57 1005.0
20260904153136 57 178 13.0 24.0 0.00 0.00 0.00 58 1004.7
20260904151559 56 176 18.0 29.0 0.00 0.00 0.00 60 1004.5